Flag for U.S.A. Weather past 2 weeks in Nashville, Tennessee, U.S.A.

Now
52 °F

Clear.


Feels Like: 51 °F
Forecast: 48 / 75 °F
Wind: 5 mph from Northeast

Location: Nashville International Airport

Current Time: Sep 23, 2014 at 5:36:43 AM

Latest Report: Sep 23, 2014 at 4:53 AM


Visibility: 10 mi

Pressure: 30.23 "Hg

Humidity: 80%

Dew point: 46 °F

Location of NashvilleLocation

Historic Weather in Nashville — Graph

°F

Nashville temperature yesterday

Maximum temperature yesterday: 75 °F (at 2:53 PM)
Minimum temperature yesterday: 56 °F (at 5:53 AM)
Average temperature yesterday: 65 °F

Past Weeks' High & Low Weather Summary

 TemperatureHumidityPressure
High89 °F (Sep 9, 3:53 PM)100% (Sep 9, 6:53 AM)30.27 "Hg (Sep 9, 6:53 AM)
Low52 °F (Sep 23, 2:53 AM)34% (Sep 22, 3:53 PM)29.85 "Hg (Sep 10, 6:53 PM)
Average70 °F75%30.06 "Hg
* Reported Sep 8 3:53 AM — Sep 23 3:53 AM, Nashville, Weather by CustomWeather, © 2014

Note: Actual official high and low records may vary slightly from our data, if they occured in-between our weather recording intervals... More about our weather records

Advertising

Nashville weather history for previous 24 hours

 ConditionsComfort  
Time TempWeatherWind HumidityBarometerVisibility
3:53 AM
Sep 23
52 °FClear.5 mph80%30.22 "Hg10 mi
2:53 AM52 °FClear.No wind80%30.22 "Hg10 mi
1:53 AM54 °FClear.3 mph77%30.23 "Hg10 mi
12:53 AM55 °FClear.6 mph74%30.22 "Hg10 mi
11:53 PM
Sep 22
56 °FClear.8 mph75%30.22 "Hg10 mi
10:53 PM57 °FClear.8 mph72%30.22 "Hg10 mi
9:53 PM59 °FClear.6 mph64%30.22 "Hg10 mi
8:53 PM61 °FClear.6 mph60%30.20 "Hg10 mi
7:53 PM64 °FClear.7 mph52%30.15 "Hg10 mi
6:53 PM67 °FClear.8 mph45%30.13 "Hg10 mi
5:53 PM71 °FSunny.12 mph39%30.12 "Hg10 mi
4:53 PM74 °FSunny.12 mph35%30.15 "Hg10 mi
3:53 PM75 °FSunny.9 mph34%30.16 "Hg10 mi
2:53 PM75 °FSunny.13 mph37%30.16 "Hg10 mi
1:53 PM74 °FPassing clouds.9 mph38%30.17 "Hg10 mi
12:53 PM73 °FPassing clouds.13 mph41%30.19 "Hg10 mi
11:53 AM71 °FPassing clouds.14 mph47%30.20 "Hg10 mi
10:53 AM69 °FPassing clouds.12 mph51%30.19 "Hg10 mi
9:53 AM68 °FSunny.10 mph51%30.19 "Hg10 mi
8:53 AM64 °FSunny.10 mph63%30.18 "Hg10 mi
7:53 AM60 °FSunny.10 mph75%30.17 "Hg10 mi
6:53 AM56 °FSunny.5 mph81%30.15 "Hg10 mi
5:53 AM56 °FClear.6 mph81%30.12 "Hg10 mi
Weather by CustomWeather, © 2014

See weather overviewHow to use our weather pages